Theta_e
314 313 313 316 319 318 319 319 318 318 319 319 318 318 319 321 323 331 335 333 334 336 327 331 333 336 337 337 336 335 334 333 334 335 339 341 341 340 338 336 337 336 335 335 335 334 335 335 333
313 310 315 317 318 320 320 319 318 318 317 316 317 318 321 323 327 327 335 335 336 338 330 331 334 336 336 336 335 336 334 334 334 333 336 340 341 340 339 338 338 337 336 335 334 334 336 335 333
311 311 318 320 321 321 322 318 317 317 315 316 317 318 318 321 322 327 332 332 336 342 330 331 333 335 334 334 334 335 334 334 333 333 334 337 340 340 340 339 338 337 336 335 333 334 336 335 334
315 315 315 320 322 321 319 318 317 317 317 316 317 319 317 318 322 329 335 337 334 342 337 330 333 332 333 331 332 333 334 334 333 333 333 335 337 337 337 336 336 336 335 334 333 334 337 336 333
313 316 321 321 322 322 320 319 319 320 319 318 318 320 320 320 327 327 329 337 339 343 342 332 333 331 330 329 330 333 334 334 334 334 334 334 336 335 334 332 332 333 334 334 333 334 334 334 331
316 316 321 322 322 320 319 319 319 319 319 319 319 320 320 322 325 328 328 334 334 340 335 332 333 332 328 327 328 331 333 334 334 334 334 334 333 332 331 330 331 332 333 334 333 333 333 331 329
316 317 318 319 319 320 319 319 319 320 320 320 319 321 321 321 328 329 322 324 335 333 332 331 330 329 328 325 325 328 330 331 334 335 334 333 333 332 331 331 331 332 333 333 333 333 331 328 327
315 317 316 317 317 317 318 317 317 317 319 318 319 321 322 321 323 327 332 325 332 337 329 330 330 328 327 324 325 325 326 327 333 335 335 334 334 332 332 332 331 332 332 333 332 331 328 327 328
312 314 315 315 316 316 316 317 317 317 317 317 318 319 319 319 317 318 324 331 339 338 332 331 331 325 324 323 323 325 324 326 331 335 335 335 335 334 333 333 332 332 332 333 331 328 327 327 327
311 313 313 314 314 315 314 313 312 312 313 314 313 314 316 314 314 314 315 321 331 339 337 333 330 326 322 321 322 325 325 327 331 335 336 336 339 338 338 335 333 332 333 332 329 327 327 327 332
308 310 310 311 310 309 309 308 308 308 310 310 309 309 308 309 311 313 313 315 322 332 338 330 327 326 324 323 323 322 322 335 334 335 339 338 338 338 338 337 334 333 333 331 329 328 330 333 337
308 308 308 308 307 307 307 307 307 307 307 306 306 306 307 308 308 309 311 312 314 325 335 337 327 325 323 329 323 323 321 323 332 335 338 340 338 338 338 339 337 336 334 336 334 336 336 335 334
307 308 306 306 306 306 306 307 307 307 306 306 306 306 306 307 307 307 309 311 313 316 326 335 331 324 322 323 330 322 320 321 323 327 334 338 337 335 339 340 340 337 337 336 336 336 334 332 333
307 306 306 306 307 306 307 307 307 307 306 306 306 306 306 306 306 307 307 309 311 314 321 333 335 325 323 322 324 321 320 321 322 325 327 334 332 334 338 339 339 338 337 336 336 336 334 333 333
306 307 308 309 307 307 306 307 308 307 307 307 306 306 306 306 306 306 307 307 309 312 314 327 336 331 324 322 322 321 320 321 322 322 325 330 330 332 334 335 337 337 336 334 335 335 334 334 333
308 308 309 309 308 307 306 308 309 307 307 306 306 306 306 307 307 306 306 307 307 309 312 316 333 336 328 323 322 321 321 321 322 323 324 326 328 329 332 331 331 334 334 334 335 334 335 334 333
308 308 308 308 308 307 306 307 308 306 306 306 306 306 307 307 307 307 306 307 308 308 311 314 324 337 334 325 322 322 321 321 331 336 323 323 325 327 328 330 331 332 333 334 335 334 334 335 334
308 309 309 309 308 308 308 308 308 307 307 307 308 308 308 307 307 307 307 307 307 308 311 313 317 336 336 333 324 325 329 323 332 335 331 322 323 325 327 328 329 331 333 334 335 334 332 334 334
307 307 308 309 309 307 308 308 309 309 308 309 308 308 308 308 307 306 306 306 307 308 314 315 316 327 337 337 334 332 333 329 332 335 334 324 323 324 325 326 327 329 331 331 333 334 334 333 334
308 308 309 309 308 308 309 309 311 310 311 311 311 310 309 309 308 307 306 307 312 313 314 317 319 324 336 336 336 333 331 330 332 333 333 327 322 324 325 324 325 327 329 330 330 332 334 333 333
310 309 309 308 309 310 310 311 311 311 310 307 306 306 306 307 307 308 310 311 311 312 313 316 324 325 334 335 337 336 335 334 334 333 333 324 323 324 325 325 325 326 328 328 329 329 333 333 332
311 308 307 307 310 312 311 314 312 310 309 306 304 302 302 302 302 304 305 305 306 307 310 313 323 333 335 336 337 336 335 333 334 334 331 325 325 326 326 326 325 324 325 327 327 329 330 332 332
309 309 308 309 311 312 312 313 313 309 307 305 303 300 299 299 300 301 300 300 301 307 312 313 320 334 338 336 337 336 339 338 338 336 335 331 328 328 328 327 327 325 324 325 326 327 329 330 331
309 310 312 312 312 315 313 314 314 308 305 303 301 299 298 296 298 299 299 299 300 302 308 314 316 332 337 338 338 337 337 337 337 334 334 333 334 332 331 330 328 327 326 326 326 326 328 330 330
310 313 316 316 318 314 314 315 310 306 304 302 300 298 297 295 295 296 297 297 298 298 304 312 313 323 330 334 334 337 335 328 337 336 337 335 332 334 334 333 332 329 328 329 329 329 329 329 328
312 313 314 316 316 316 313 315 310 304 302 299 298 296 296 294 293 293 295 295 296 297 300 312 312 320 323 327 329 333 335 337 336 335 338 336 335 336 334 335 335 333 332 332 332 332 331 331 331
312 313 313 314 315 316 317 312 307 304 302 299 297 295 295 293 292 292 293 293 294 295 297 310 310 315 321 325 328 331 332 333 333 333 332 333 334 333 337 336 336 335 333 332 334 333 332 332 331
313 312 314 316 318 319 318 312 309 304 301 300 297 295 293 293 292 291 291 291 292 294 297 305 304 312 314 320 321 325 328 328 328 330 332 332 333 333 333 333 335 334 333 332 332 332 331 330 332
312 313 313 314 315 318 318 313 305 303 300 298 295 294 292 292 291 290 290 290 290 292 296 299 302 310 312 314 316 318 319 322 324 325 327 329 330 330 331 332 333 332 331 330 330 329 328 325 333
309 312 314 317 317 317 317 310 303 301 298 296 294 293 292 291 290 289 289 290 291 292 294 301 304 307 308 310 312 316 317 319 320 321 321 322 323 327 329 330 330 330 329 329 331 330 329 330 332
Wind_Speed
4 2 3 3 6 6 8 3 4 6 3 2 2 7 11 13 9 9 9 17 14 20 26 27 26 24 23 21 19 17 17 17 20 22 22 22 21 20 19 17 16 15 15 15 15 12 12 12 12
4 4 4 4 7 9 8 4 7 2 3 6 11 8 8 3 4 12 14 22 12 19 28 28 27 25 23 21 19 18 17 16 18 21 23 24 23 21 20 17 15 15 15 15 14 13 12 12 12
3 6 7 4 7 12 11 9 7 4 2 7 4 3 8 2 8 13 16 20 13 21 28 28 26 25 22 21 20 19 18 17 17 19 22 23 23 21 19 16 15 15 14 14 13 13 12 13 13
3 4 5 8 15 10 8 5 4 6 4 2 7 14 8 2 11 15 19 14 14 19 25 28 25 24 23 21 20 19 18 17 17 18 20 22 22 21 19 17 16 14 14 14 13 14 13 13 12
4 5 9 10 14 11 12 16 17 14 14 13 14 13 12 8 8 16 19 10 12 17 22 25 26 24 22 22 21 20 18 18 18 18 19 21 22 20 19 17 15 14 14 15 14 13 13 12 11
8 5 9 13 16 10 14 18 18 17 15 13 12 12 8 5 17 20 20 12 13 17 23 26 27 25 23 22 21 20 19 19 19 18 20 21 21 20 18 16 15 15 16 14 13 12 12 11 10
12 8 14 15 15 15 15 13 15 18 19 17 13 13 13 8 17 20 22 17 11 22 25 28 29 27 25 23 22 21 20 20 20 19 20 20 19 19 17 16 16 16 15 14 13 12 11 11 11
8 6 14 12 14 17 12 13 15 15 16 8 6 5 4 17 19 19 17 16 11 21 28 28 30 29 28 26 24 22 21 21 21 20 20 20 19 19 18 17 16 16 15 14 13 13 12 11 10
4 7 11 15 13 14 6 11 13 16 21 17 13 14 19 19 22 20 17 14 11 16 26 28 28 31 30 28 26 24 22 22 21 21 21 21 20 21 20 19 18 17 16 15 14 14 13 11 11
8 10 12 8 9 11 10 12 17 21 22 22 23 20 18 25 27 26 22 18 14 14 24 27 30 32 32 30 27 26 25 25 25 25 24 23 19 19 18 20 18 17 16 16 15 15 12 13 10
3 10 11 10 10 11 17 21 23 24 27 27 30 31 30 28 29 27 25 22 19 15 19 32 32 33 34 31 30 29 28 23 24 24 23 22 22 21 20 17 21 20 18 18 17 16 14 13 11
10 12 12 15 15 18 19 25 25 26 33 35 31 34 30 25 25 30 29 26 23 20 18 23 34 36 37 28 31 30 31 30 27 27 27 26 25 23 20 17 18 20 20 17 16 14 14 15 13
15 9 9 11 18 24 26 27 28 33 32 32 34 27 31 31 28 28 29 28 25 23 23 22 31 39 39 36 27 33 33 33 30 29 28 28 29 26 20 18 19 21 19 19 17 14 15 15 13
8 16 19 21 22 25 26 28 23 20 21 25 27 32 33 34 33 31 31 30 27 24 22 24 29 40 42 41 35 35 34 33 31 31 31 29 29 28 22 21 19 20 19 19 17 16 15 14 12
14 20 19 16 5 4 17 23 20 18 17 25 26 26 29 37 38 36 31 33 29 27 24 26 29 36 44 43 39 36 37 34 33 32 31 31 29 29 27 24 21 21 23 24 20 16 16 15 13
12 11 6 3 10 15 7 25 18 20 20 28 34 37 37 38 41 39 33 33 34 30 27 26 30 32 41 46 42 40 38 36 33 32 32 31 31 29 30 29 28 25 26 25 20 19 16 16 15
6 10 16 14 3 5 8 27 23 30 32 32 34 37 39 39 39 40 35 33 35 33 29 27 29 34 37 44 46 41 39 35 28 24 33 32 31 30 29 29 28 28 28 26 26 23 17 16 16
14 17 17 18 4 21 23 26 28 37 31 32 35 37 36 37 39 35 39 36 32 34 31 28 28 34 34 38 47 38 32 35 27 25 27 33 32 31 30 29 28 28 28 27 28 27 20 18 16
13 16 20 19 20 16 14 20 23 32 30 24 27 31 34 38 37 34 38 35 32 33 32 30 29 35 34 36 36 34 32 33 30 27 26 30 33 32 31 30 30 29 29 28 27 28 28 23 18
13 17 18 18 6 18 21 23 19 14 19 26 27 27 29 31 31 29 29 34 24 26 27 27 27 34 35 36 38 36 36 32 29 26 26 30 33 34 33 32 32 31 29 29 28 28 29 28 28
14 14 16 20 21 20 15 15 13 11 17 25 25 26 26 26 26 23 18 18 17 19 20 20 24 34 36 36 37 32 28 24 26 28 30 36 35 35 34 34 33 31 30 31 30 30 31 32 31
14 7 13 17 16 11 14 12 20 13 18 22 29 30 31 25 22 16 14 15 14 14 18 15 21 35 36 40 39 43 40 39 35 33 33 37 35 33 34 35 34 32 31 32 32 31 31 31 32
7 14 15 20 18 15 12 7 4 17 22 24 24 28 31 30 23 18 16 14 15 9 7 11 12 34 37 39 43 48 33 28 22 24 29 34 34 36 35 36 36 34 34 33 33 32 32 33 31
14 16 19 13 8 7 6 4 3 12 17 19 20 27 28 32 28 22 18 14 15 10 2 6 3 26 35 39 39 37 40 25 22 25 26 28 30 35 38 37 35 36 35 34 34 33 32 33 32
5 12 6 4 7 7 8 4 9 11 15 16 17 25 25 33 33 29 27 24 20 17 12 11 7 13 24 30 27 36 27 31 25 23 22 24 31 32 36 41 40 39 38 36 34 33 32 32 33
13 5 5 6 9 15 2 3 4 8 14 20 23 26 25 31 37 34 30 27 22 20 18 16 15 11 11 12 15 26 31 34 29 27 21 21 31 32 32 35 43 43 40 38 36 33 30 29 30
3 7 5 7 16 7 2 3 7 17 17 21 24 28 29 30 36 37 33 30 27 24 23 20 16 14 11 10 10 15 17 21 26 26 29 31 28 30 30 33 33 42 38 40 38 37 33 31 28
12 5 6 3 5 5 4 4 8 15 17 15 19 26 32 34 38 40 36 31 29 26 27 25 18 20 17 13 9 9 10 14 19 22 25 23 28 26 28 30 32 31 33 34 39 41 34 32 32
6 6 6 4 7 5 6 5 5 10 12 15 17 23 28 29 35 37 36 33 29 30 27 27 29 27 24 19 15 9 6 6 9 16 20 26 26 27 23 23 24 26 27 29 33 35 29 35 38
8 9 10 6 5 3 3 3 6 10 13 17 18 21 26 28 34 36 38 37 37 38 38 32 31 30 25 22 20 17 11 7 2 2 7 12 20 23 20 13 16 21 22 27 29 33 36 39 37
Wind_Direction
244 243 185 220 242 242 251 254 326 217 219 171 136 284 297 291 277 309 322 313 270 205 194 192 194 194 196 195 194 192 192 186 184 187 189 189 187 185 183 179 177 176 175 174 173 173 172 173 175
190 164 185 243 258 244 250 243 240 262 349 294 284 262 237 317 304 304 320 317 246 200 195 195 195 198 197 198 197 197 197 194 191 188 190 189 190 188 186 183 185 181 179 178 178 176 174 176 174
177 169 244 244 252 253 278 28 327 297 332 304 289 323 320 315 336 328 317 313 219 188 197 200 197 199 199 201 201 200 200 200 197 191 189 190 190 189 190 190 192 187 183 184 181 181 180 175 176
192 201 228 242 244 249 272 312 290 290 277 325 316 299 305 286 337 333 331 311 213 188 192 204 199 201 202 205 205 205 205 205 202 197 190 190 188 188 190 194 194 192 189 185 185 185 183 181 184
208 239 253 245 261 274 270 269 278 282 290 291 308 293 292 311 0 346 353 314 202 190 193 202 202 203 204 206 207 206 208 209 206 201 195 190 189 191 191 193 195 192 188 188 190 188 188 191 193
228 267 243 256 256 237 264 273 287 291 288 286 290 287 283 285 350 344 342 334 238 208 200 200 203 204 207 208 208 207 210 211 209 203 200 194 194 193 193 193 192 187 190 193 192 194 193 198 197
263 257 267 280 275 268 263 280 286 292 293 296 309 278 288 286 337 342 336 333 265 229 208 204 203 204 208 209 209 209 210 213 210 205 205 202 199 196 194 192 190 190 192 194 195 198 196 197 199
273 267 267 251 270 281 296 280 280 293 303 302 311 295 300 334 336 337 339 336 294 227 217 209 205 205 206 208 208 209 212 213 209 206 205 205 201 198 195 194 193 194 195 198 197 194 193 191 201
247 258 263 271 273 293 313 303 295 306 294 286 290 282 302 310 326 329 328 326 308 241 222 214 210 207 205 209 208 208 211 212 209 206 205 202 199 197 197 196 197 198 199 200 193 188 188 196 197
246 255 284 326 302 315 326 306 309 305 292 284 290 291 295 308 309 310 309 309 308 266 230 222 215 211 209 209 208 208 209 207 205 205 204 201 198 195 195 203 199 201 202 199 192 190 196 189 195
233 262 314 275 298 302 299 290 294 292 282 286 299 293 293 295 292 294 297 292 289 281 241 227 219 214 213 210 211 210 208 201 203 201 204 198 201 198 195 197 198 200 201 196 196 197 198 186 192
275 265 275 290 294 300 291 296 283 276 279 287 283 288 290 291 291 291 290 291 286 274 253 235 226 218 216 211 215 214 210 207 201 201 202 203 202 202 197 195 195 197 195 196 191 196 196 201 202
260 286 292 287 288 288 290 276 277 276 278 275 283 281 285 287 284 284 286 284 282 272 260 239 234 225 219 215 215 216 213 210 209 206 204 205 209 207 198 199 197 201 194 198 199 202 204 206 213
316 291 287 283 280 277 276 281 280 274 275 284 278 283 286 287 285 280 277 279 275 271 263 247 230 233 224 218 217 220 217 212 210 211 211 207 211 212 200 200 200 199 200 202 206 207 208 210 215
291 291 294 284 301 284 302 279 273 287 282 287 282 280 282 286 285 277 272 271 271 269 264 250 237 234 232 222 219 220 220 215 213 213 214 214 215 216 211 207 201 205 208 212 211 209 208 211 217
289 284 293 197 297 276 298 290 302 294 284 285 283 282 282 282 280 279 273 267 264 264 262 255 240 230 231 228 220 221 221 218 217 216 216 216 217 217 219 219 220 212 219 220 212 211 211 211 217
172 300 307 308 235 290 273 294 295 296 290 286 284 282 281 277 274 277 274 269 260 255 256 253 240 231 225 227 225 221 221 220 214 214 218 217 217 218 219 222 221 220 222 222 220 217 212 211 214
307 308 302 306 314 314 292 284 298 302 299 296 294 293 289 282 275 270 272 269 266 253 252 249 242 233 225 220 223 217 217 218 212 214 220 218 219 218 220 224 223 221 222 222 223 226 218 216 218
293 292 293 301 313 309 286 290 298 306 306 309 305 301 298 292 287 278 270 267 267 256 257 251 241 231 224 214 207 204 207 214 210 213 215 221 220 219 219 223 224 221 222 222 222 225 225 223 215
288 291 293 302 300 315 303 303 303 350 1 8 349 338 329 320 307 291 273 271 268 265 267 251 234 225 221 215 210 210 211 212 212 211 215 219 222 222 221 223 225 224 222 222 222 221 225 226 225
279 280 293 293 315 293 313 297 356 5 18 354 350 340 337 328 317 305 300 287 282 272 277 268 235 221 217 213 207 203 202 200 207 212 215 223 225 224 223 226 227 228 227 227 226 224 227 226 229
282 304 296 293 311 318 335 301 317 3 357 353 350 353 348 340 329 316 317 312 309 293 271 271 248 204 212 211 203 200 203 205 212 212 216 225 225 228 226 228 229 230 231 232 232 231 230 232 234
283 319 290 291 289 298 288 282 349 7 357 348 349 349 353 347 337 336 335 327 318 311 268 231 251 207 202 212 207 209 201 201 211 211 216 223 227 229 233 230 229 230 231 234 236 236 233 234 234
287 296 280 272 275 253 43 330 50 14 351 344 346 351 354 357 351 349 348 348 349 352 76 142 208 189 199 193 201 206 211 184 203 218 223 227 234 233 234 234 235 235 234 234 237 239 240 239 237
248 292 302 255 219 301 28 284 49 7 1 354 348 350 357 4 358 359 2 9 10 5 50 97 87 129 171 185 182 186 171 223 224 224 231 239 241 238 237 234 234 234 235 236 239 239 241 240 239
295 284 301 301 311 311 313 345 57 16 16 3 357 356 360 7 1 4 4 13 15 18 43 81 69 107 131 150 151 168 183 198 216 226 222 247 250 250 246 243 236 238 239 239 241 239 240 239 240
41 246 343 276 259 269 118 101 204 11 6 5 1 1 360 10 2 2 6 18 20 27 46 71 63 78 104 139 167 192 189 206 219 230 239 241 246 256 250 250 252 242 241 243 243 243 245 243 243
239 349 279 203 278 292 120 110 356 358 358 1 5 1 359 8 8 5 10 17 26 40 53 67 69 77 80 98 150 146 196 220 231 236 233 232 234 240 254 253 249 252 246 250 247 248 251 249 249
247 247 235 293 269 286 298 84 15 10 10 1 6 5 2 9 15 7 15 23 30 45 53 60 60 69 67 74 77 107 166 205 234 242 246 245 244 248 247 256 255 251 253 254 251 248 250 265 254
300 319 316 253 259 284 297 88 23 24 19 11 10 7 6 12 20 15 20 30 38 45 51 53 56 60 58 60 63 68 76 90 137 221 253 251 245 242 245 258 255 256 256 259 257 255 248 248 249